Regional Weather Roundup
Issued by NWS Green Bay, WI

Home | Current Version | Previous Version | Text Only | Print | Product List | Glossary On
Versions: 1 2 3 4 5 6 7 8 9 10 11 12 13 14 15 16 17 18 19 20 21 22 23 24 25 26 27 28 29 30 31 32 33 34 35 36 37 38 39 40 41 42 43 44 45 46 47 48 49 50
000
ASUS43 KGRB 241911
RWRGRB

NORTH-CENTRAL AND NORTHEAST WISCONSIN REGIONAL WEATHER ROUNDUP
NATIONAL WEATHER SERVICE GREEN BAY WI
200 PM CDT SAT SEP 24 2016

WIZ005-009-010>012-018-019-242000-
NORTH CENTRAL WISCONSIN

CITY           SKY/WX    TMP DP  RH WIND       PRES   REMARKS
IRONWOOD       CLOUDY    67  57  70 SE10      30.17F
MANITOWISH WTR CLOUDY    65  57  75 SE10      30.19F
ARBOR VITAE    PTSUNNY   67  56  67 S13       30.20F
EAGLE RIVER    SUNNY     67  51  55 SE7       30.20F
LAND O LAKES   CLOUDY    68  51  54 SE9       30.22F
RHINELANDER    CLOUDY    66  54  65 S8        30.22F
PHILLIPS       CLOUDY    64  58  80 SE9       30.18F
ANTIGO         CLOUDY    65  54  68 S8        30.22F
TOMAHAWK       CLOUDY    65  54  69 SE3       30.21F
MERRILL        CLOUDY    65  55  70 SE8       30.22F
$$

WIZ013-073-242000-
NORTHEAST WISCONSIN

CITY           SKY/WX    TMP DP  RH WIND       PRES   REMARKS
IRON MOUNTAIN  SUNNY     68  47  46 S12       30.23F
MARINETTE      MOSUNNY   66  51  58 SE10      30.25
OCONTO         MOSUNNY   66  51  59 SE6       30.23F
$$

WIZ017-030-035>037-045-242000-
CENTRAL WISCONSIN

CITY           SKY/WX    TMP DP  RH WIND       PRES   REMARKS
MEDFORD        CLOUDY    64  59  86 SE9       30.18F
WAUSAU         MOSUNNY   68  53  58 SE12      30.19F
MOSINEE        MOSUNNY   66  55  68 SE12      30.21F
MARSHFIELD     CLOUDY    65  56  72 SE10      30.18F
WISC RAPIDS    LGT RAIN  65  57  75 SE8       30.20F
STEVENS POINT  CLOUDY    66  54  64 E10G16    30.20F
WAUPACA        PTSUNNY   70  55  59 E10       30.21F
SHAWANO        MOSUNNY   72  54  53 SE13      30.22F
CLINTONVILLE   NOT AVBL
WAUTOMA        CLOUDY    68  58  70 SE7       30.21F
$$

WIZ038-039-048-051-242000-
FOX VALLEY

CITY           SKY/WX    TMP DP  RH WIND       PRES   REMARKS
NWS GREEN BAY  SUNNY     69  54  58 MISG      30.23F
APPLETON       PTSUNNY   68  52  56 SE10      30.21F
OSHKOSH        CLOUDY    67  55  65 SE10      30.20F
FOND DU LAC    CLOUDY    67  56  67 E12       30.21F
$$

WIZ022-050-052-242000-
EAST CENTRAL WISCONSIN

CITY           SKY/WX    TMP DP  RH WIND       PRES   REMARKS
EPHRAIM        FAIR      64  49  57 E7        30.25S
WASHINGTON ISL CLOUDY    63  47  57 E9        30.25F
STURGEON BAY   SUNNY     65  51  60 E6        30.25F
MANITOWOC      MOSUNNY   64  54  69 SE9       30.24F
SHEBOYGAN      MOSUNNY   66  55  67 S9        30.23F
$$

LMZ563-521-522-541>543-242000-
LAKESHORE

STATION/POSITION TIME  TEMP    WIND        PRES    VSBY  WAVE
                       AIR SEA DIR/SP/G                  HT/PER
                 (UTC) (F)     (DEG/KT/KT) (MB)    (MI)  (FT/S)
SHEBOYGAN LKSHOR 1900   63     130/ 11/ 12 1023.1F
KEWAUNEE LKSHORE 1800   63     150/  9/ 11 1023.9F
NORTHPORT PIER   1800   63     130/ 11/ 13 1024.7F
N MID LAKE BUOY  1850   62 68  110/ 12/ 14 1024.4F         2/ 3
S GREEN BAY BUOY 1800   64 66  130/ 10/ 10 1023.7F
CHAMBERS ISLAND  1800   65     100/  5/  9 1024.4F
MENOMINEE LKSHOR 1800   63     120/  6/  8 1023.7F
$$




USA.gov is the U.S. government's official web portal to all federal, state and local government web resources and services.